Home > Weather > Canada > Corner Brook > Past weeks

Flag for Canada Weather past 2 weeks in Corner Brook, Newfoundland and Labrador, Canada

32 °F

Snow flurries. Overcast.

Feels Like: 22 °F
Forecast: 31 / 38 °F
Wind: 13 mph from Southwest

Location: Deer Lake

Current Time: Dec 1, 2015 at 10:30:41 PM

Latest Report: Dec 1, 2015 at 9:30 PM

Visibility: 15 mi

Pressure: 30.05 "Hg

Humidity: 75%

Dew point: 25 °F

Location of Corner BrookLocation

Historic Weather in Corner Brook — Graph


Corner Brook temperature yesterday

Maximum temperature yesterday: 21 °F (at 12:30 PM)
Minimum temperature yesterday: 12 °F (at 4:30 AM)
Average temperature yesterday: 17 °F

Past Weeks' High & Low Weather Summary

High61 °F (Nov 23, 1:30 PM)100% (Nov 21, 1:30 AM)30.89 "Hg (Nov 21, 1:30 AM)
Low12 °F (Nov 30, 4:30 AM)55% (Nov 18, 3:30 PM)29.40 "Hg (Nov 24, 4:30 AM)
Average32 °F81%30.24 "Hg
* Reported Nov 16 8:30 PM — Dec 1 8:30 PM, Corner Brook, Weather by CustomWeather, © 2015

Note: Actual official high and low records may vary slightly from our data, if they occured in-between our weather recording intervals... More about our weather records


Corner Brook weather history for previous 24 hours

Time TempWeatherWind HumidityBarometerVisibility
8:30 PM
Tue, Dec 1
30 °FSnow flurries. Overcast.10 mph80%30.06 "Hg15 mi
7:30 PM30 °FSnow flurries. Overcast.10 mph75%30.08 "Hg12 mi
6:30 PM30 °FSnow flurries. Overcast.12 mph75%30.09 "Hg10 mi
5:30 PM30 °FSnow flurries. Overcast.13 mph75%30.08 "Hg10 mi
4:30 PM30 °FSnow flurries. Overcast.12 mph75%30.08 "Hg5 mi
3:30 PM30 °FSnow flurries. Overcast.13 mph75%30.06 "Hg4 mi
2:30 PM28 °FSnow flurries. Overcast.20 mph86%30.05 "Hg3 mi
1:38 PM27 °FSnow flurries. Partly sunny.12 mph86%30.06 "Hg3 mi
12:30 PM28 °FSnow flurries. Broken clouds.9 mph74%30.07 "Hg5 mi
11:30 AM28 °FSnow flurries. Partly sunny.13 mph74%30.08 "Hg5 mi
10:30 AM28 °FSnow flurries. More clouds than sun.3 mph86%30.07 "Hg3 mi
9:30 AM27 °FSnow flurries. Mostly cloudy.12 mph86%30.08 "Hg5 mi
8:30 AM27 °FSnow flurries. More clouds than sun.8 mph86%30.07 "Hg8 mi
7:30 AM27 °FSnow flurries. Overcast.18 mph86%30.07 "Hg2 mi
6:30 AM27 °FSnow flurries. Passing clouds.15 mph80%30.08 "Hg8 mi
5:30 AM25 °FSnow flurries. Passing clouds.14 mph86%30.09 "Hg8 mi
4:30 AM25 °FSnow flurries. Mostly cloudy.16 mph80%30.11 "Hg10 mi
3:30 AM25 °FSnow flurries. Mostly cloudy.15 mph74%30.13 "Hg3 mi
2:30 AM25 °FSnow flurries. Overcast.12 mph74%30.15 "Hg15 mi
1:30 AM23 °FSnow flurries. Mostly cloudy.9 mph80%30.17 "Hg10 mi
12:30 AM21 °FSnow flurries. Mostly cloudy.10 mph80%30.19 "Hg12 mi
11:30 PM
Mon, Nov 30
21 °FSnow flurries. Mostly cloudy.8 mph74%30.22 "Hg15 mi
10:30 PM21 °FSnow flurries. Mostly cloudy.13 mph74%30.24 "Hg10 mi
Weather by CustomWeather, © 2015

See weather overviewHow to use our weather pages